TimeCST,TemperatureF,Dew PointF,Humidity,Sea Level PressureIn,VisibilityMPH,Wind Direction,Wind SpeedMPH,Gust SpeedMPH,PrecipitationIn,Events,Conditions,WindDirDegrees,DateUTC
12:52 AM,28.9,21.0,72,30.23,7.0,NNW,11.5,-,N/A,,Overcast,340,2013-03-01 06:52:00
1:52 AM,28.9,21.0,72,30.23,7.0,NW,10.4,-,N/A,,Overcast,320,2013-03-01 07:52:00
2:16 AM,28.4,19.4,69,30.21,7.0,NW,10.4,-,N/A,,Overcast,320,2013-03-01 08:16:00
2:52 AM,28.0,21.0,75,30.23,8.0,NW,10.4,-,N/A,,Overcast,320,2013-03-01 08:52:00
3:52 AM,28.0,19.9,72,30.23,8.0,NW,10.4,-,N/A,,Overcast,320,2013-03-01 09:52:00
4:32 AM,28.4,19.4,69,30.21,8.0,NW,11.5,-,N/A,,Overcast,320,2013-03-01 10:32:00
4:52 AM,28.0,19.9,72,30.25,8.0,NW,11.5,-,N/A,,Overcast,320,2013-03-01 10:52:00
5:52 AM,28.0,19.9,72,30.25,7.0,NNW,11.5,-,N/A,,Overcast,330,2013-03-01 11:52:00
6:52 AM,28.0,19.0,69,30.26,6.0,NNW,15.0,-,N/A,,Haze,340,2013-03-01 12:52:00
7:52 AM,27.0,19.0,72,30.27,3.0,NW,12.7,-,N/A,,Haze,320,2013-03-01 13:52:00
8:32 AM,26.6,19.4,74,30.26,2.5,NNW,11.5,-,N/A,,Haze,330,2013-03-01 14:32:00
8:52 AM,27.0,19.9,75,30.29,3.0,NW,13.8,-,N/A,,Haze,320,2013-03-01 14:52:00
9:02 AM,26.6,19.4,74,30.26,2.0,NNW,11.5,-,0.00,Snow,Light Snow,330,2013-03-01 15:02:00
9:10 AM,26.6,21.2,80,30.26,1.5,NNW,11.5,-,0.00,Snow,Light Snow,330,2013-03-01 15:10:00
9:38 AM,26.6,21.2,80,30.26,2.5,NW,13.8,-,0.00,,Haze,320,2013-03-01 15:38:00
9:52 AM,27.0,21.0,78,30.30,2.5,NW,13.8,-,0.00,,Haze,320,2013-03-01 15:52:00
10:00 AM,26.6,19.4,74,30.27,3.0,NNW,15.0,-,N/A,,Haze,330,2013-03-01 16:00:00
10:31 AM,28.4,21.2,74,30.27,2.0,NNW,13.8,-,N/A,,Haze,330,2013-03-01 16:31:00
11:06 AM,28.4,21.2,74,30.26,4.0,NNW,13.8,-,N/A,,Haze,330,2013-03-01 17:06:00
11:30 AM,28.4,21.2,74,30.26,3.0,NNW,13.8,-,N/A,,Haze,340,2013-03-01 17:30:00
11:52 AM,30.0,21.0,69,30.29,4.0,NNW,16.1,-,N/A,,Haze,330,2013-03-01 17:52:00
12:52 PM,30.0,21.0,69,30.28,5.0,NNW,16.1,-,N/A,,Haze,330,2013-03-01 18:52:00
1:52 PM,30.9,21.9,69,30.27,7.0,NNW,18.4,-,N/A,,Overcast,340,2013-03-01 19:52:00
2:52 PM,30.9,21.0,67,30.28,5.0,NNW,19.6,-,N/A,,Haze,340,2013-03-01 20:52:00
3:52 PM,30.9,21.0,67,30.29,6.0,North,12.7,-,N/A,,Haze,350,2013-03-01 21:52:00
4:52 PM,30.0,21.0,69,30.30,4.0,North,12.7,-,N/A,,Haze,350,2013-03-01 22:52:00
6:52 PM,28.0,19.9,72,30.33,10.0,NNW,11.5,-,N/A,,Overcast,340,2013-03-02 00:52:00
7:52 PM,25.0,18.0,75,30.35,9.0,NNW,8.1,-,N/A,,Scattered Clouds,330,2013-03-02 01:52:00
9:52 PM,21.0,16.0,81,30.36,8.0,North,8.1,-,N/A,,Clear,350,2013-03-02 03:52:00
10:52 PM,19.9,15.1,81,30.37,8.0,NNW,8.1,-,N/A,,Clear,340,2013-03-02 04:52:00
11:52 PM,19.0,14.0,81,30.36,8.0,North,8.1,-,N/A,,Clear,360,2013-03-02 05:52:00